Location: Göttingen
(51.5413°N, 9.9158°E)
Time: 04:56:27
(UTC+02:00)

Envisat - Pass Details

Date: 26 January 2022
Orbit: 764 x 765 km, 98.2° (Epoch: 28 May)

Event Time Altitude Azimuth Distance (km) Brightness Sun altitude
Rises 06:56:51 0° 6° (N) 3,244 6.1 -10.9°
Reaches altitude 10° 06:59:39 10° 351° (N) 2,313 5.2 -10.5°
Maximum altitude 07:03:23 21° 303° (WNW) 1,669 4.2 -10.0°
Drops below altitude 10° 07:07:07 10° 256° (WSW) 2,303 5.0 -9.4°
Sets 07:09:53 0° 240° (WSW) 3,225 5.8 -9.0°
